EZY411 EDDH-EDDV

Flight info

Callsign EZY411
Flight time N/A
Altitude 15000
Route IDEKO8B IDEKO N850 NIE
Aircraft A20N/M-SDE2E3FGHIRWXY/LB1

Departure

Time 2026-05-01 11:50
Airport Hamburg Helmut Schmidt Airport (EDDH)

Arrival

Time N/A
Airport Hannover Airport (EDDV)
Time Latitude Longitude Altitude Speed Heading
2026-05-01 11:19 53.62892 10.00214 45 ft 0 kts 123°
2026-05-01 11:42 53.62899 10.00195 42 ft 2 kts 115°
2026-05-01 11:42 53.62904 10.00171 44 ft 2 kts 105°
2026-05-01 11:42 53.62908 10.00145 44 ft 2 kts 97°
2026-05-01 11:43 53.62909 10.00119 43 ft 2 kts 88°
2026-05-01 11:43 53.62907 10.00092 42 ft 2 kts 65°
2026-05-01 11:43 53.62902 10.00078 44 ft 0 kts 39°
2026-05-01 11:47 53.62903 10.00079 44 ft 1 kts 39°
2026-05-01 11:47 53.62933 10.00117 44 ft 11 kts 34°
2026-05-01 11:47 53.63020 10.00209 46 ft 17 kts 32°
2026-05-01 11:47 53.63118 10.00259 47 ft 15 kts 355°
2026-05-01 11:48 53.63231 10.00246 49 ft 17 kts 356°
2026-05-01 11:48 53.63356 10.00231 50 ft 19 kts 355°
2026-05-01 11:48 53.63473 10.00204 51 ft 16 kts 331°
2026-05-01 11:48 53.63567 10.00078 51 ft 19 kts 319°
2026-05-01 11:49 53.63574 9.99902 50 ft 18 kts 228°
2026-05-01 11:49 53.63485 9.99722 50 ft 23 kts 229°
2026-05-01 11:49 53.63282 9.99315 51 ft 77 kts 229°
2026-05-01 11:49 53.62810 9.98361 48 ft 132 kts 231°
2026-05-01 11:50 53.62128 9.96972 72 ft 171 kts 231°
2026-05-01 11:50 53.61374 9.95390 575 ft 174 kts 231°
2026-05-01 11:50 53.60611 9.93806 1300 ft 172 kts 228°
2026-05-01 11:50 53.59859 9.92286 1927 ft 171 kts 228°
2026-05-01 11:51 53.59090 9.90723 2693 ft 174 kts 229°
2026-05-01 11:51 53.58313 9.89131 3496 ft 175 kts 228°
2026-05-01 11:51 53.57533 9.87525 4232 ft 181 kts 228°
2026-05-01 11:51 53.56739 9.85873 4987 ft 187 kts 227°
2026-05-01 11:52 53.55920 9.84156 5832 ft 191 kts 227°
2026-05-01 11:52 53.55052 9.82390 6555 ft 198 kts 226°
2026-05-01 11:52 53.54085 9.80827 7457 ft 186 kts 205°
2026-05-01 11:52 53.52874 9.79968 8174 ft 191 kts 198°
2026-05-01 11:53 53.51611 9.79140 8799 ft 202 kts 198°
2026-05-01 11:53 53.50253 9.78280 9459 ft 214 kts 196°
2026-05-01 11:53 53.48789 9.77373 10071 ft 233 kts 198°
2026-05-01 11:53 53.47222 9.76368 10706 ft 248 kts 197°
2026-05-01 11:54 53.45580 9.75293 11410 ft 257 kts 198°
2026-05-01 11:54 53.43889 9.74179 12201 ft 264 kts 198°
2026-05-01 11:54 53.42173 9.73055 13034 ft 270 kts 198°
2026-05-01 11:54 53.40400 9.71899 13916 ft 275 kts 198°
2026-05-01 11:55 53.38602 9.70728 14754 ft 278 kts 198°
2026-05-01 11:55 53.36779 9.69530 15272 ft 294 kts 199°
2026-05-01 11:55 53.34785 9.68216 15433 ft 322 kts 199°
2026-05-01 11:55 53.32591 9.66775 15399 ft 350 kts 199°
2026-05-01 11:56 53.30298 9.65257 15399 ft 355 kts 199°
2026-05-01 11:56 53.28025 9.63749 15386 ft 354 kts 199°
2026-05-01 11:56 53.25729 9.62231 15184 ft 354 kts 199°
2026-05-01 11:56 53.23440 9.60723 14951 ft 352 kts 199°
2026-05-01 11:57 53.21158 9.59225 14702 ft 350 kts 199°
2026-05-01 11:57 53.18896 9.57744 14469 ft 348 kts 199°
2026-05-01 11:57 53.16639 9.56267 14229 ft 348 kts 199°
2026-05-01 11:57 53.14417 9.54816 13977 ft 346 kts 199°
2026-05-01 11:58 53.12171 9.53353 13710 ft 345 kts 199°
2026-05-01 11:58 53.09933 9.51896 13449 ft 344 kts 199°
2026-05-01 11:58 53.05487 9.49008 12935 ft 341 kts 199°
2026-05-01 11:59 53.03308 9.47591 12679 ft 339 kts 199°
2026-05-01 11:59 53.01112 9.46164 12431 ft 338 kts 198°
2026-05-01 11:59 52.98872 9.45017 12178 ft 335 kts 190°
2026-05-01 12:00 52.94274 9.43938 11681 ft 331 kts 185°
2026-05-01 12:00 52.92017 9.43466 11463 ft 330 kts 185°
2026-05-01 12:00 52.87464 9.42497 11387 ft 330 kts 185°
2026-05-01 12:01 52.85208 9.42018 11380 ft 329 kts 185°
2026-05-01 12:01 52.82930 9.41530 11373 ft 330 kts 185°
2026-05-01 12:01 52.80648 9.41044 11313 ft 330 kts 185°
2026-05-01 12:01 52.78381 9.40560 11230 ft 323 kts 185°
2026-05-01 12:02 52.76214 9.40094 11131 ft 311 kts 185°
2026-05-01 12:02 52.74092 9.39639 10841 ft 304 kts 185°
2026-05-01 12:02 52.71983 9.39193 10341 ft 306 kts 185°
2026-05-01 12:02 52.69854 9.38750 9761 ft 308 kts 185°
2026-05-01 12:03 52.67756 9.38308 9196 ft 308 kts 184°
2026-05-01 12:03 52.65631 9.38465 8697 ft 302 kts 162°
2026-05-01 12:03 52.63847 9.40028 8523 ft 282 kts 138°
2026-05-01 12:03 52.62727 9.42534 8263 ft 268 kts 115°
2026-05-01 12:04 52.62325 9.45447 7943 ft 265 kts 94°
2026-05-01 12:04 52.62295 9.48553 7822 ft 271 kts 94°
2026-05-01 12:04 52.62132 9.51563 7723 ft 256 kts 109°
2026-05-01 12:04 52.61298 9.54005 7477 ft 241 kts 135°
2026-05-01 12:05 52.59903 9.55477 7018 ft 242 kts 161°
2026-05-01 12:05 52.56524 9.55156 5754 ft 256 kts 204°
2026-05-01 12:05 52.55151 9.53243 5151 ft 267 kts 232°
2026-05-01 12:06 52.54462 9.50430 4569 ft 274 kts 260°
2026-05-01 12:06 52.54481 9.47298 4145 ft 272 kts 275°
2026-05-01 12:06 52.54754 9.44294 3980 ft 257 kts 277°
2026-05-01 12:06 52.55000 9.41481 3970 ft 245 kts 275°
2026-05-01 12:07 52.55177 9.38743 3962 ft 237 kts 272°
2026-05-01 12:07 52.55292 9.36015 3908 ft 241 kts 270°
2026-05-01 12:07 52.55372 9.33268 3822 ft 245 kts 270°
2026-05-01 12:07 52.55437 9.30480 3709 ft 242 kts 269°
2026-05-01 12:08 52.55498 9.27725 3575 ft 237 kts 270°
2026-05-01 12:08 52.55556 9.25057 3467 ft 228 kts 266°
2026-05-01 12:08 52.55231 9.22594 3286 ft 219 kts 238°
2026-05-01 12:08 52.54197 9.20766 3183 ft 223 kts 209°
2026-05-01 12:09 52.52801 9.19906 3050 ft 210 kts 184°
2026-05-01 12:09 52.51400 9.20174 3025 ft 204 kts 158°
2026-05-01 12:09 52.50246 9.21500 2984 ft 203 kts 130°
2026-05-01 12:09 52.49437 9.23422 3020 ft 206 kts 124°
2026-05-01 12:10 52.48643 9.25408 3038 ft 211 kts 124°
2026-05-01 12:10 52.47093 9.29357 3012 ft 203 kts 118°
2026-05-01 12:10 52.46619 9.31606 3064 ft 218 kts 102°
2026-05-01 12:11 52.46421 9.36658 3000 ft 220 kts 95°
2026-05-01 12:11 52.46354 9.39181 2979 ft 221 kts 95°
2026-05-01 12:11 52.46294 9.41689 2984 ft 220 kts 94°
2026-05-01 12:12 52.46241 9.44195 3009 ft 216 kts 94°
2026-05-01 12:12 52.46179 9.46571 2867 ft 209 kts 95°
2026-05-01 12:12 52.46086 9.48943 2708 ft 207 kts 97°
2026-05-01 12:12 52.45962 9.51302 2487 ft 208 kts 97°
2026-05-01 12:13 52.45885 9.53675 2168 ft 210 kts 94°
2026-05-01 12:13 52.45843 9.55996 1734 ft 199 kts 94°
2026-05-01 12:13 52.45789 9.58222 1324 ft 186 kts 96°
2026-05-01 12:13 52.45718 9.60266 1221 ft 170 kts 96°
2026-05-01 12:14 52.45630 9.62122 1010 ft 156 kts 95°
2026-05-01 12:14 52.45609 9.63827 787 ft 141 kts 96°
2026-05-01 12:14 52.45561 9.65318 585 ft 125 kts 95°
2026-05-01 12:14 52.45524 9.66661 368 ft 113 kts 94°
2026-05-01 12:15 52.45492 9.67970 201 ft 115 kts 94°
2026-05-01 12:15 52.45456 9.69172 198 ft 88 kts 93°